SKW5595 KASE-KDEN

Flight info

Callsign SKW5595
Flight time 0h 30m
Altitude 25000
Route LINDZ1 LINDZ IDENE JNETT SSKII4
Aircraft E75L/M-SDE3GILORVW/S

Departure

Time 2026-04-25 17:41
Airport Aspen-Pitkin County Airport (Sardy Field) (KASE)

Arrival

Time 2026-04-25 18:11
Airport Denver International Airport (KDEN)
Time Latitude Longitude Altitude Speed Heading
2026-04-25 17:05 39.21941 -106.86509 7804 ft 0 kts 70°
2026-04-25 17:33 39.21936 -106.86524 7805 ft 2 kts 70°
2026-04-25 17:33 39.21934 -106.86543 7805 ft 2 kts 95°
2026-04-25 17:34 39.21938 -106.86562 7805 ft 2 kts 114°
2026-04-25 17:34 39.21946 -106.86578 7805 ft 2 kts 133°
2026-04-25 17:34 39.21958 -106.86590 7804 ft 2 kts 152°
2026-04-25 17:34 39.21965 -106.86594 7803 ft 1 kts 163°
2026-04-25 17:35 39.21968 -106.86595 7803 ft 0 kts 161°
2026-04-25 17:37 39.21967 -106.86594 7803 ft 1 kts 160°
2026-04-25 17:37 39.21940 -106.86581 7805 ft 5 kts 159°
2026-04-25 17:37 39.21876 -106.86551 7811 ft 13 kts 160°
2026-04-25 17:37 39.21791 -106.86510 7818 ft 12 kts 160°
2026-04-25 17:38 39.21709 -106.86472 7825 ft 13 kts 160°
2026-04-25 17:38 39.21679 -106.86458 7828 ft 14 kts 159°
2026-04-25 17:38 39.21485 -106.86366 7840 ft 20 kts 160°
2026-04-25 17:38 39.21351 -106.86301 7848 ft 19 kts 159°
2026-04-25 17:39 39.21247 -106.86253 7852 ft 10 kts 162°
2026-04-25 17:39 39.21194 -106.86263 7856 ft 5 kts 223°
2026-04-25 17:39 39.21184 -106.86296 7857 ft 4 kts 266°
2026-04-25 17:39 39.21198 -106.86345 7859 ft 6 kts 317°
2026-04-25 17:40 39.21309 -106.86404 7855 ft 45 kts 339°
2026-04-25 17:40 39.21843 -106.86661 7816 ft 117 kts 339°
2026-04-25 17:40 39.22813 -106.87120 7753 ft 174 kts 338°
2026-04-25 17:40 39.24036 -106.87570 8207 ft 189 kts 348°
2026-04-25 17:41 39.25350 -106.87796 8920 ft 193 kts 354°
2026-04-25 17:41 39.26649 -106.87997 9660 ft 194 kts 340°
2026-04-25 17:41 39.27819 -106.88895 10229 ft 202 kts 309°
2026-04-25 17:41 39.28478 -106.90471 10816 ft 210 kts 284°
2026-04-25 17:42 39.28839 -106.92351 11173 ft 218 kts 281°
2026-04-25 17:42 39.29209 -106.94414 11238 ft 249 kts 281°
2026-04-25 17:42 39.29607 -106.96669 11480 ft 271 kts 281°
2026-04-25 17:42 39.30050 -106.99191 11504 ft 301 kts 281°
2026-04-25 17:43 39.30525 -107.01907 11860 ft 317 kts 281°
2026-04-25 17:43 39.31016 -107.04694 12531 ft 320 kts 281°
2026-04-25 17:43 39.31896 -107.07297 13303 ft 324 kts 306°
2026-04-25 17:43 39.33602 -107.09136 14093 ft 326 kts 321°
2026-04-25 17:44 39.35331 -107.11002 14806 ft 325 kts 313°
2026-04-25 17:44 39.36976 -107.13011 15446 ft 331 kts 321°
2026-04-25 17:44 39.39108 -107.14155 16049 ft 344 kts 349°
2026-04-25 17:44 39.41522 -107.13951 16656 ft 357 kts 15°
2026-04-25 17:45 39.43752 -107.12498 17304 ft 365 kts 33°
2026-04-25 17:45 39.44414 -107.11823 17486 ft 369 kts 42°
2026-04-25 17:45 39.46310 -107.06901 18481 ft 377 kts 85°
2026-04-25 17:45 39.46094 -107.03533 19009 ft 379 kts 105°
2026-04-25 17:46 39.45471 -107.00219 19546 ft 384 kts 106°
2026-04-25 17:46 39.44822 -106.96841 20059 ft 390 kts 106°
2026-04-25 17:46 39.44150 -106.93373 20578 ft 395 kts 106°
2026-04-25 17:46 39.43483 -106.89937 21089 ft 400 kts 106°
2026-04-25 17:47 39.42792 -106.86388 21596 ft 405 kts 106°
2026-04-25 17:47 39.42099 -106.82835 22089 ft 410 kts 106°
2026-04-25 17:47 39.41401 -106.79266 22556 ft 415 kts 107°
2026-04-25 17:47 39.40693 -106.75651 22994 ft 421 kts 106°
2026-04-25 17:48 39.39234 -106.68220 23969 ft 429 kts 106°
2026-04-25 17:48 39.38496 -106.64475 24432 ft 433 kts 107°
2026-04-25 17:48 39.37748 -106.60683 24837 ft 439 kts 107°
2026-04-25 17:49 39.36993 -106.56863 25031 ft 434 kts 107°
2026-04-25 17:49 39.36230 -106.53019 25068 ft 450 kts 106°
2026-04-25 17:49 39.35444 -106.49062 25067 ft 464 kts 107°
2026-04-25 17:49 39.34388 -106.45125 25061 ft 467 kts 113°
2026-04-25 17:50 39.33234 -106.41230 25054 ft 458 kts 114°
2026-04-25 17:50 39.32097 -106.37404 25049 ft 453 kts 113°
2026-04-25 17:50 39.30977 -106.33635 25058 ft 451 kts 114°
2026-04-25 17:50 39.29823 -106.29798 25079 ft 465 kts 114°
2026-04-25 17:51 39.28654 -106.25877 25076 ft 468 kts 114°
2026-04-25 17:51 39.27473 -106.21955 25076 ft 464 kts 114°
2026-04-25 17:51 39.26207 -106.18220 25051 ft 451 kts 120°
2026-04-25 17:51 39.24884 -106.14588 25037 ft 453 kts 111°
2026-04-25 17:52 39.24341 -106.10530 25076 ft 465 kts 89°
2026-04-25 17:52 39.24408 -106.09161 25088 ft 467 kts 82°
2026-04-25 17:52 39.26167 -106.02676 25056 ft 456 kts 70°
2026-04-25 17:52 39.26862 -105.98694 25079 ft 457 kts 77°
2026-04-25 17:53 39.27533 -105.94767 25047 ft 443 kts 76°
2026-04-25 17:53 39.28219 -105.90925 24969 ft 442 kts 76°
2026-04-25 17:53 39.28917 -105.87065 24482 ft 439 kts 76°
2026-04-25 17:53 39.29606 -105.83263 24007 ft 435 kts 76°
2026-04-25 17:54 39.30293 -105.79462 23528 ft 428 kts 76°
2026-04-25 17:54 39.30963 -105.75751 23070 ft 423 kts 75°
2026-04-25 17:54 39.31622 -105.72099 22612 ft 419 kts 75°
2026-04-25 17:54 39.32289 -105.68436 22146 ft 413 kts 73°
2026-04-25 17:55 39.33340 -105.65063 21899 ft 396 kts 63°
2026-04-25 17:55 39.34480 -105.61920 21484 ft 385 kts 62°
2026-04-25 17:55 39.35605 -105.58835 21069 ft 375 kts 63°
2026-04-25 17:55 39.36704 -105.55815 20663 ft 367 kts 62°
2026-04-25 17:56 39.37791 -105.52832 20267 ft 366 kts 63°
2026-04-25 17:56 39.38854 -105.49911 19873 ft 363 kts 63°
2026-04-25 17:56 39.39927 -105.46960 19473 ft 362 kts 63°
2026-04-25 17:56 39.40992 -105.44026 19076 ft 358 kts 64°
2026-04-25 17:57 39.41608 -105.40952 18714 ft 355 kts 87°
2026-04-25 17:57 39.41679 -105.37792 18369 ft 352 kts 89°
2026-04-25 17:57 39.41713 -105.34658 17979 ft 350 kts 90°
2026-04-25 17:57 39.41722 -105.33608 17845 ft 349 kts 90°
2026-04-25 17:58 39.41756 -105.28434 17198 ft 345 kts 90°
2026-04-25 17:58 39.41773 -105.25332 16813 ft 344 kts 90°
2026-04-25 17:58 39.41789 -105.22251 16457 ft 341 kts 90°
2026-04-25 17:58 39.41804 -105.19186 16091 ft 341 kts 90°
2026-04-25 17:59 39.41818 -105.16154 15679 ft 334 kts 90°
2026-04-25 17:59 39.41830 -105.13223 15314 ft 325 kts 90°
2026-04-25 17:59 39.41843 -105.10361 14980 ft 317 kts 90°
2026-04-25 17:59 39.41853 -105.07512 14614 ft 311 kts 90°
2026-04-25 18:00 39.41863 -105.04785 14244 ft 305 kts 90°
2026-04-25 18:00 39.41872 -105.02086 13901 ft 300 kts 90°
2026-04-25 18:00 39.41880 -104.99421 13559 ft 291 kts 90°
2026-04-25 18:00 39.41888 -104.96841 13273 ft 289 kts 90°
2026-04-25 18:01 39.41919 -104.94248 12874 ft 285 kts 85°
2026-04-25 18:01 39.42130 -104.91747 12647 ft 274 kts 84°
2026-04-25 18:01 39.42342 -104.89349 12430 ft 269 kts 84°
2026-04-25 18:01 39.42554 -104.86945 12127 ft 268 kts 84°
2026-04-25 18:02 39.42764 -104.84578 11891 ft 265 kts 83°
2026-04-25 18:02 39.42975 -104.82197 11616 ft 266 kts 84°
2026-04-25 18:02 39.43182 -104.79855 11333 ft 265 kts 84°
2026-04-25 18:02 39.43391 -104.77487 11052 ft 263 kts 84°
2026-04-25 18:03 39.43828 -104.75221 10850 ft 259 kts 68°
2026-04-25 18:03 39.44507 -104.73049 10741 ft 261 kts 63°
2026-04-25 18:03 39.45693 -104.71342 10490 ft 255 kts 28°
2026-04-25 18:03 39.47242 -104.70270 10145 ft 251 kts 27°
2026-04-25 18:04 39.48763 -104.69183 9742 ft 252 kts 27°
2026-04-25 18:04 39.50303 -104.68087 9366 ft 251 kts 27°
2026-04-25 18:04 39.51821 -104.67021 9026 ft 249 kts 27°
2026-04-25 18:04 39.53334 -104.65962 8953 ft 246 kts 27°
2026-04-25 18:05 39.54838 -104.64913 8945 ft 246 kts 26°
2026-04-25 18:05 39.56464 -104.64301 8933 ft 239 kts 360°
2026-04-25 18:05 39.58093 -104.64356 8684 ft 232 kts 349°
2026-04-25 18:05 39.59665 -104.64780 8270 ft 233 kts 340°
2026-04-25 18:06 39.61201 -104.65537 7905 ft 231 kts 337°
2026-04-25 18:06 39.62608 -104.66264 7942 ft 210 kts 337°
2026-04-25 18:06 39.63934 -104.66949 7798 ft 200 kts 337°
2026-04-25 18:06 39.65219 -104.67622 7515 ft 198 kts 337°
2026-04-25 18:07 39.66493 -104.68267 7182 ft 199 kts 344°
2026-04-25 18:07 39.67837 -104.68700 6964 ft 200 kts 346°
2026-04-25 18:07 39.69212 -104.68921 6943 ft 199 kts
2026-04-25 18:07 39.70607 -104.68909 6934 ft 199 kts
2026-04-25 18:08 39.71987 -104.68894 6933 ft 198 kts
2026-04-25 18:08 39.73375 -104.68877 6929 ft 198 kts
2026-04-25 18:08 39.74767 -104.68856 6934 ft 198 kts
2026-04-25 18:08 39.76147 -104.68844 6939 ft 199 kts
2026-04-25 18:09 39.77536 -104.68829 6940 ft 199 kts
2026-04-25 18:09 39.78915 -104.68812 6944 ft 194 kts
2026-04-25 18:09 39.80200 -104.68793 6745 ft 171 kts
2026-04-25 18:09 39.80589 -104.68789 6648 ft 167 kts
2026-04-25 18:10 39.82384 -104.68771 6244 ft 142 kts
2026-04-25 18:10 39.83355 -104.68758 6060 ft 137 kts
2026-04-25 18:10 39.84309 -104.68745 5888 ft 138 kts
2026-04-25 18:10 39.85270 -104.68733 5712 ft 139 kts
2026-04-25 18:11 39.86257 -104.68720 5509 ft 140 kts
2026-04-25 18:11 39.87186 -104.68710 5441 ft 124 kts
2026-04-25 18:11 39.87908 -104.68703 5441 ft 81 kts
2026-04-25 18:11 39.88348 -104.68686 5441 ft 45 kts
2026-04-25 18:12 39.88544 -104.68608 5441 ft 16 kts 28°
2026-04-25 18:12 39.88598 -104.68549 5441 ft 8 kts 73°
2026-04-25 18:12 39.88556 -104.68484 5441 ft 12 kts 167°
2026-04-25 18:12 39.88457 -104.68483 5441 ft 17 kts 180°
2026-04-25 18:13 39.88332 -104.68484 5441 ft 18 kts 180°
2026-04-25 18:13 39.88203 -104.68485 5441 ft 18 kts 180°
2026-04-25 18:13 39.88066 -104.68488 5441 ft 21 kts 181°
2026-04-25 18:14 39.87736 -104.68491 5441 ft 24 kts 180°
2026-04-25 18:14 39.87563 -104.68494 5441 ft 24 kts 180°
2026-04-25 18:14 39.87390 -104.68495 5441 ft 25 kts 180°
2026-04-25 18:14 39.87213 -104.68497 5441 ft 26 kts 180°
2026-04-25 18:15 39.87018 -104.68500 5441 ft 28 kts 180°
2026-04-25 18:15 39.86819 -104.68502 5441 ft 28 kts 180°
2026-04-25 18:15 39.86621 -104.68504 5441 ft 28 kts 180°
2026-04-25 18:15 39.86420 -104.68507 5441 ft 28 kts 179°
2026-04-25 18:16 39.86237 -104.68509 5441 ft 20 kts 180°
2026-04-25 18:16 39.86109 -104.68510 5441 ft 13 kts 180°
2026-04-25 18:16 39.86031 -104.68368 5441 ft 18 kts 90°
2026-04-25 18:17 39.86023 -104.68218 5441 ft 12 kts 107°
2026-04-25 18:17 39.86014 -104.68105 5441 ft 12 kts 89°
2026-04-25 18:17 39.86005 -104.68063 5441 ft 4 kts 135°
2026-04-25 18:17 39.85977 -104.68053 5441 ft 4 kts 175°
2026-04-25 18:18 39.85948 -104.68053 5441 ft 2 kts 178°
2026-04-25 18:18 39.85933 -104.68053 5441 ft 0 kts 180°
2026-04-25 18:18 39.85932 -104.68053 5441 ft 0 kts 180°